Location: Brede
(50.9167°N, 0.6000°E)
Time: 12:27:01
(UTC+00:00)

Envisat - Visible Passes

Search period start: 09 December 2021 00:00
Search period end: 19 December 2021 00:00
Orbit: 764 x 766 km, 98.2° (Epoch: 08 December)

Date Brightness Start Highest point End Pass type
(mag) Time Alt. Az. Time Alt. Az. Time Alt. Az.
09 Dec 5.0 04:07:13 10° NE 04:11:29 26° E 04:15:42 10° SSE visible
09 Dec 3.1 05:45:50 10° N 05:50:46 51° WNW 05:55:40 10° SW visible
09 Dec 5.5 17:06:36 10° SW 17:10:42 24° W 17:14:48 10° NW visible
10 Dec 5.9 03:31:43 10° ENE 03:34:08 13° E 03:36:33 10° ESE visible
10 Dec 3.0 05:08:51 10° NNE 05:13:58 83° ESE 05:19:03 10° SSW visible
10 Dec 4.3 06:48:55 10° NNW 06:52:24 19° NW 06:55:52 10° W visible
10 Dec 4.2 16:28:39 10° S 16:33:33 47° W 16:38:28 10° NNW visible
11 Dec 4.1 04:32:09 10° NNE 04:36:58 42° E 04:41:46 10° SSE visible
11 Dec 3.6 06:11:23 10° N 06:15:55 33° WNW 06:20:25 10° SW visible
11 Dec 5.9 17:33:25 10° WSW 17:36:19 15° W 17:39:14 10° NW visible
12 Dec 5.3 03:55:54 10° NE 03:59:47 22° E 04:03:39 10° SE visible
12 Dec 2.9 05:34:13 10° N 05:39:15 63° WNW 05:44:16 10° SSW visible
12 Dec 5.1 16:54:36 10° SSW 16:59:01 29° W 17:03:28 10° NNW visible
13 Dec 6.1 03:21:27 10° ENE 03:22:24 10° E 03:23:19 10° E visible
13 Dec 3.3 04:57:18 10° NNE 05:02:24 68° ESE 05:07:27 10° S visible
13 Dec 4.1 06:37:05 10° N 06:40:58 22° WNW 06:44:50 10° WSW visible
14 Dec 4.5 04:20:43 10° NNE 04:25:20 34° E 04:29:56 10° SSE visible
14 Dec 3.4 05:59:42 10° N 06:04:25 40° WNW 06:09:09 10° SW visible
14 Dec 5.8 17:21:05 10° SW 17:24:36 19° W 17:28:09 10° NW visible
15 Dec 5.6 03:44:42 10° NE 03:48:05 18° E 03:51:27 10° SE visible
15 Dec 2.8 05:22:36 10° NNE 05:27:43 77° WNW 05:32:46 10° SSW visible
15 Dec 4.5 07:03:06 10° NNW 07:05:56 15° NW 07:08:45 10° W visible
15 Dec 4.8 16:42:42 10° SSW 16:47:22 36° W 16:52:04 10° NNW visible
16 Dec 3.6 04:45:47 10° NNE 04:50:48 55° E 04:55:46 10° S visible
16 Dec 3.9 06:25:20 10° N 06:29:32 27° WNW 06:33:42 10° WSW visible
16 Dec 6.2 17:48:45 10° WSW 17:50:17 11° W 17:51:50 10° WNW visible
17 Dec 4.9 04:09:19 10° NE 04:13:41 28° E 04:18:01 10° SSE visible
17 Dec 3.1 05:48:02 10° N 05:52:55 49° WNW 05:57:48 10° SW visible
17 Dec 5.6 17:08:56 10° SW 17:12:54 23° W 17:16:54 10° NW visible
18 Dec 5.8 03:33:41 10° NE 03:36:22 14° E 03:39:02 10° ESE visible
18 Dec 2.9 05:11:01 10° NNE 05:16:09 87° ESE 05:21:15 10° SSW visible
18 Dec 4.3 06:51:11 10° NNW 06:54:31 18° NW 06:57:52 10° W visible
18 Dec 4.4 16:30:53 10° S 16:35:44 44° W 16:40:37 10° NNW visible
